Retour au catalogue

COSMOS 2251 DEB

ActifLEO
NORAD 35614·DEBRIS·🇷🇺 Russia

Lancé Jun 16, 1993 depuis Plesetsk Cosmodrome

Loading…

Prochains Passages (prochaines 24 heures)

TLE

FraisSource: Space-Track

Époque: Sep 14, 2026, 09:23 UTC

1 35614U 93036ANH 26257.39118004  .00002544  00000-0  41875-3 0  9991
2 35614  73.9583 151.8525 0073466 298.4477  60.9304 14.69351457917756

Suivez COSMOS 2251 DEB en temps réel avec AllMySat

Download on the App Store